Carmi, IL

8:10 AM CDT on July 21, 2017 (GMT -0500)
Carmi Municipal

Weather History for KCUL - November, 2012

Change the Weather History Date:

Tuesday, November 20, 2012

  Actual Average (KEHR) Record (KEHR)
Temperature  
Mean Temperature 58 °F -  
Max Temperature 67 °F 56 °F 74 °F (1985)
Min Temperature 48 °F 38 °F 17 °F (2014)
Degree Days  
Heating Degree Days 8    
Growing Degree Days 8 (Base 50)    
Moisture  
Dew Point 48 °F    
Average Humidity 69    
Maximum Humidity 87    
Minimum Humidity 51    
Precipitation  
Precipitation 0.00 in - - ()
Sea Level Pressure  
Sea Level Pressure 30.11 in    
Wind  
Wind Speed 4 mph (NW)    
Max Wind Speed 9 mph    
Max Gust Speed -    
Visibility 9 miles    
Events      
Averages and records for this station are not official NWS values.
T = Trace of Precipitation, MM = Missing Value Source: NWS Daily Summary

Daily Weather History Graph

Daily Weather History Graph

Search for Another Location

Airport or City:

Trip Planner

Search our weather history database for the weather conditions in past years. The results will help you decide how hot, cold, wet, or windy it might be!

Date:

Astronomy

Nov. 20, 2012 Rise Set
Actual Time 6:39 AM CST 4:36 PM CST
Civil Twilight 6:10 AM CST 5:05 PM CST
Nautical Twilight 5:38 AM CST 5:37 PM CST
Astronomical Twilight 5:07 AM CST 6:08 PM CST
Moon 12:16 PM CST (11/20) No Moon Set
Length of Visible Light 10h 54m
Length of Day
9h 57m
First Quarter, 51% of the Moon is Illuminated
Nov 20
First Quarter
Nov 28
Full
Dec 6
Last Quarter
Dec 13
New
Dec 19
First Quarter

Hourly Weather History & Observations

Time (CST) Temp. Dew Point Humidity Pressure Visibility Wind Dir Wind Speed Gust Speed Precip Events Conditions
12:15 AM 48.2 °F 44.2 °F 86% 30.15 in 10.0 mi Calm Calm - N/A   Overcast
12:35 AM 48.6 °F 45.0 °F 87% 30.15 in 10.0 mi SSE 4.6 mph - N/A   Overcast
12:55 AM 48.9 °F 45.1 °F 87% 30.14 in 10.0 mi SSE 3.5 mph - N/A   Overcast
1:15 AM 49.8 °F 45.0 °F 83% 30.15 in 10.0 mi Calm Calm - N/A   Overcast
1:35 AM 49.5 °F 45.3 °F 86% 30.14 in 10.0 mi SSE 4.6 mph - N/A   Overcast
2:15 AM 50.7 °F 44.1 °F 78% 30.14 in 10.0 mi Calm Calm - N/A   Overcast
2:35 AM 50.2 °F 44.2 °F 80% 30.14 in 10.0 mi SSE 4.6 mph - N/A   Overcast
6:15 AM 51.1 °F 44.6 °F 78% 30.12 in 10.0 mi South 3.5 mph - N/A   Overcast
6:35 AM 51.3 °F 44.8 °F 78% 30.12 in 7.0 mi SSE 4.6 mph - N/A   Overcast
6:55 AM 51.1 °F 44.1 °F 77% 30.12 in 10.0 mi South 5.8 mph - N/A   Mostly Cloudy
7:15 AM 50.0 °F 43.9 °F 79% 30.12 in 7.0 mi South 5.8 mph - N/A   Scattered Clouds
7:35 AM 50.4 °F 44.6 °F 81% 30.12 in 10.0 mi South 5.8 mph - N/A   Clear
7:55 AM 52.0 °F 45.7 °F 79% 30.12 in 7.0 mi South 4.6 mph - N/A   Clear
8:15 AM 54.1 °F 45.7 °F 73% 30.12 in 7.0 mi South 5.8 mph - N/A   Clear
8:35 AM 56.1 °F 45.5 °F 68% 30.12 in 7.0 mi South 5.8 mph - N/A   Clear
8:55 AM 58.5 °F 45.1 °F 61% 30.12 in 10.0 mi SSW 6.9 mph - N/A   Clear
9:15 AM 59.0 °F 45.0 °F 60% 30.12 in 7.0 mi SW 8.1 mph - N/A   Clear
9:35 AM 59.9 °F 45.3 °F 59% 30.12 in 10.0 mi SW 6.9 mph - N/A   Clear
9:55 AM 60.8 °F 45.5 °F 57% 30.12 in 10.0 mi WSW 5.8 mph - N/A   Clear
10:15 AM 60.6 °F 46.8 °F 60% 30.13 in 10.0 mi West 9.2 mph - N/A   Mostly Cloudy
10:35 AM 61.2 °F 46.8 °F 59% 30.12 in 7.0 mi West 4.6 mph - N/A   Mostly Cloudy
10:55 AM 62.2 °F 46.8 °F 57% 30.11 in 10.0 mi West 4.6 mph - N/A   Clear
11:15 AM 62.8 °F 46.8 °F 56% 30.10 in 10.0 mi Calm Calm - N/A   Clear
11:35 AM 64.2 °F 48.2 °F 56% 30.09 in 10.0 mi SW 3.5 mph - N/A   Clear
11:55 AM 64.0 °F 47.3 °F 54% 30.08 in 10.0 mi Calm Calm - N/A   Clear
12:15 PM 64.4 °F 47.3 °F 54% 30.07 in 10.0 mi Calm Calm - N/A   Clear
12:35 PM 64.4 °F 47.7 °F 55% 30.07 in 10.0 mi Calm Calm - N/A   Clear
12:55 PM 64.9 °F 47.8 °F 54% 30.07 in 10.0 mi Calm Calm - N/A   Clear
1:15 PM 67.1 °F 48.6 °F 51% 30.06 in 10.0 mi Calm Calm - N/A   Clear
1:35 PM 66.4 °F 49.1 °F 54% 30.06 in 10.0 mi Calm Calm - N/A   Clear
1:55 PM 65.7 °F 48.7 °F 54% 30.05 in 7.0 mi Calm Calm - N/A   Clear
2:15 PM 65.8 °F 48.2 °F 53% 30.05 in 10.0 mi Calm Calm - N/A   Clear
2:35 PM 65.5 °F 49.3 °F 56% 30.05 in 7.0 mi Calm Calm - N/A   Scattered Clouds
2:55 PM 66.0 °F 50.0 °F 56% 30.05 in 3.0 mi Calm Calm - N/A   Haze
3:15 PM 65.3 °F 49.8 °F 57% 30.06 in 7.0 mi WNW 4.6 mph - N/A   Overcast
3:35 PM 63.3 °F 51.3 °F 65% 30.06 in 7.0 mi NW 5.8 mph - N/A   Mostly Cloudy
3:55 PM 61.7 °F 50.9 °F 68% 30.07 in 10.0 mi NNW 4.6 mph - N/A   Mostly Cloudy
4:15 PM 62.1 °F 50.9 °F 67% 30.07 in 10.0 mi NNW 3.5 mph - N/A   Overcast
4:35 PM 61.7 °F 50.7 °F 67% 30.07 in 10.0 mi Calm Calm - N/A   Overcast
4:55 PM 60.8 °F 50.9 °F 70% 30.08 in 10.0 mi NNW 5.8 mph - N/A   Overcast
5:15 PM 60.4 °F 50.2 °F 69% 30.09 in 10.0 mi North 5.8 mph - N/A   Overcast
5:35 PM 59.5 °F 50.2 °F 71% 30.10 in 10.0 mi NNW 5.8 mph - N/A   Overcast
5:55 PM 59.2 °F 50.0 °F 72% 30.10 in 10.0 mi North 4.6 mph - N/A   Overcast
6:15 PM 58.3 °F 50.2 °F 74% 30.11 in 10.0 mi North 3.5 mph - N/A   Overcast
6:35 PM 58.1 °F 50.2 °F 75% 30.11 in 10.0 mi NNW 4.6 mph - N/A   Overcast
6:55 PM 59.2 °F 49.5 °F 70% 30.12 in 10.0 mi NNW 6.9 mph - N/A   Overcast
7:15 PM 59.0 °F 49.3 °F 70% 30.12 in 10.0 mi North 8.1 mph - N/A   Overcast
7:35 PM 58.8 °F 49.3 °F 71% 30.13 in 7.0 mi North 6.9 mph - N/A   Overcast
7:55 PM 58.8 °F 49.3 °F 71% 30.14 in 7.0 mi North 6.9 mph - N/A   Overcast
8:15 PM 58.5 °F 49.3 °F 72% 30.14 in 7.0 mi NNW 6.9 mph - N/A   Overcast
8:35 PM 57.9 °F 49.3 °F 73% 30.15 in 7.0 mi North 4.6 mph - N/A   Overcast
8:55 PM 57.4 °F 49.3 °F 74% 30.15 in 10.0 mi North 5.8 mph - N/A   Overcast
9:15 PM 57.4 °F 49.1 °F 74% 30.15 in 10.0 mi North 3.5 mph - N/A   Overcast
9:35 PM 56.5 °F 48.9 °F 76% 30.15 in 7.0 mi North 6.9 mph - N/A   Mostly Cloudy
9:55 PM 57.2 °F 49.1 °F 74% 30.16 in 10.0 mi NNW 5.8 mph - N/A   Overcast
10:15 PM 56.8 °F 49.1 °F 75% 30.16 in 7.0 mi NNW 6.9 mph - N/A   Overcast
10:35 PM 56.8 °F 48.4 °F 73% 30.16 in 10.0 mi NNW 4.6 mph - N/A   Overcast
10:55 PM 56.3 °F 48.2 °F 74% 30.16 in 7.0 mi NNW 4.6 mph - N/A   Overcast
11:15 PM 54.5 °F 47.5 °F 77% 30.16 in 10.0 mi NNW 3.5 mph - N/A   Scattered Clouds
11:35 PM 52.2 °F 46.6 °F 81% 30.16 in 10.0 mi NNW 3.5 mph - N/A   Clear
11:55 PM 49.1 °F 44.6 °F 84% 30.16 in 7.0 mi NNW 4.6 mph - N/A   Clear